Greenville, TX

12:28 AM CDT on July 21, 2017 (GMT -0500)
Majors

Weather History for KGVT - November, 2011

Change the Weather History Date:

Saturday, November 19, 2011

  Actual Average Record
Temperature  
Mean Temperature 68 °F -  
Max Temperature 77 °F 62 °F 77 °F (2011)
Min Temperature 60 °F 47 °F 32 °F (2016)
Cooling Degree Days 4    
Growing Degree Days 18 (Base 50)    
Moisture  
Dew Point 60 °F    
Average Humidity 75    
Maximum Humidity 88    
Minimum Humidity 61    
Precipitation  
Precipitation 0.00 in - - ()
Sea Level Pressure  
Sea Level Pressure 29.90 in    
Wind  
Wind Speed 15 mph (South)    
Max Wind Speed 21 mph    
Max Gust Speed 25 mph    
Visibility 10 miles    
Events      
Averages and records for this station are not official NWS values.
T = Trace of Precipitation, MM = Missing Value Source: NWS Daily Summary

Daily Weather History Graph

Daily Weather History Graph

Search for Another Location

Airport or City:

Trip Planner

Search our weather history database for the weather conditions in past years. The results will help you decide how hot, cold, wet, or windy it might be!

Date:

Astronomy

Nov. 19, 2011 Rise Set
Actual Time 6:58 AM CST 5:20 PM CST
Civil Twilight 6:31 AM CST 5:46 PM CST
Nautical Twilight 6:01 AM CST 6:17 PM CST
Astronomical Twilight 5:32 AM CST 6:46 PM CST
Moon 12:39 AM CST (11/19) 1:21 PM CST (11/19)
Length of Visible Light 11h 15m
Length of Day
10h 22m
Last Quarter, 38% of the Moon is Illuminated
Nov 19
Last Quarter
Nov 25
New
Dec 2
First Quarter
Dec 10
Full
Dec 17
Last Quarter

Hourly Weather History & Observations

Time (CST) Temp. Dew Point Humidity Pressure Visibility Wind Dir Wind Speed Gust Speed Precip Events Conditions
12:15 AM 60.8 °F 51.8 °F 72% 29.94 in 10.0 mi South 16.1 mph 25.3 mph N/A   Overcast
12:35 AM 60.8 °F 53.6 °F 77% 29.94 in 10.0 mi South 20.7 mph - N/A   Overcast
12:55 AM 60.8 °F 53.6 °F 77% 29.94 in 10.0 mi South 17.3 mph 25.3 mph N/A   Overcast
1:15 AM 60.8 °F 53.6 °F 77% 29.93 in 10.0 mi South 17.3 mph 23.0 mph N/A   Overcast
1:35 AM 60.8 °F 53.6 °F 77% 29.92 in 10.0 mi South 18.4 mph 23.0 mph N/A   Overcast
1:55 AM 60.8 °F 53.6 °F 77% 29.92 in 10.0 mi South 15.0 mph 21.9 mph N/A   Overcast
2:15 AM 62.6 °F 53.6 °F 72% 29.93 in 10.0 mi South 15.0 mph 24.2 mph N/A   Overcast
2:55 AM 60.8 °F 53.6 °F 77% 29.92 in 10.0 mi South 12.7 mph 18.4 mph N/A   Overcast
3:15 AM 62.6 °F 55.4 °F 77% 29.91 in 10.0 mi South 17.3 mph 21.9 mph N/A   Overcast
3:35 AM 62.6 °F 55.4 °F 77% 29.90 in 10.0 mi South 16.1 mph 23.0 mph N/A   Overcast
3:55 AM 62.6 °F 55.4 °F 77% 29.90 in 10.0 mi South 16.1 mph - N/A   Overcast
4:15 AM 62.6 °F 55.4 °F 77% 29.89 in 10.0 mi South 15.0 mph 23.0 mph N/A   Overcast
4:35 AM 62.6 °F 55.4 °F 77% 29.90 in 10.0 mi South 13.8 mph 20.7 mph N/A   Overcast
4:55 AM 62.6 °F 55.4 °F 77% 29.90 in 10.0 mi South 15.0 mph 19.6 mph N/A   Overcast
5:15 AM 62.6 °F 57.2 °F 82% 29.90 in 10.0 mi SSE 16.1 mph 24.2 mph N/A   Overcast
5:35 AM 62.6 °F 57.2 °F 82% 29.91 in 10.0 mi South 13.8 mph - N/A   Overcast
5:55 AM 62.6 °F 57.2 °F 82% 29.91 in 10.0 mi South 13.8 mph 18.4 mph N/A   Overcast
6:15 AM 62.6 °F 57.2 °F 82% 29.91 in 10.0 mi South 10.4 mph - N/A   Overcast
6:55 AM 62.6 °F 57.2 °F 82% 29.92 in 10.0 mi South 13.8 mph - N/A   Overcast
7:15 AM 62.6 °F 57.2 °F 82% 29.92 in 10.0 mi South 13.8 mph - N/A   Overcast
7:35 AM 62.6 °F 59.0 °F 88% 29.92 in 10.0 mi South 13.8 mph 19.6 mph N/A   Overcast
7:55 AM 62.6 °F 59.0 °F 88% 29.92 in 10.0 mi South 15.0 mph 19.6 mph N/A   Overcast
8:15 AM 64.4 °F 59.0 °F 83% 29.93 in 10.0 mi South 13.8 mph 19.6 mph N/A   Overcast
8:35 AM 64.4 °F 59.0 °F 83% 29.93 in 10.0 mi South 15.0 mph - N/A   Overcast
8:55 AM 64.4 °F 59.0 °F 83% 29.94 in 10.0 mi South 13.8 mph - N/A   Overcast
9:15 AM 64.4 °F 59.0 °F 83% 29.94 in 10.0 mi South 17.3 mph - N/A   Overcast
9:35 AM 64.4 °F 59.0 °F 83% 29.94 in 10.0 mi South 12.7 mph - N/A   Overcast
9:55 AM 66.2 °F 60.8 °F 83% 29.93 in 10.0 mi South 13.8 mph - N/A   Overcast
10:15 AM 68.0 °F 60.8 °F 78% 29.93 in 10.0 mi South 16.1 mph 24.2 mph N/A   Overcast
10:35 AM 68.0 °F 60.8 °F 78% 29.93 in 10.0 mi South 12.7 mph 20.7 mph N/A   Overcast
10:55 AM 68.0 °F 60.8 °F 78% 29.93 in 10.0 mi South 16.1 mph 20.7 mph N/A   Overcast
11:15 AM 69.8 °F 60.8 °F 73% 29.92 in 10.0 mi South 13.8 mph 20.7 mph N/A   Overcast
11:35 AM 69.8 °F 60.8 °F 73% 29.91 in 10.0 mi South 16.1 mph - N/A   Overcast
11:55 AM 69.8 °F 60.8 °F 73% 29.90 in 10.0 mi South 16.1 mph 23.0 mph N/A   Overcast
12:15 PM 69.8 °F 60.8 °F 73% 29.89 in 10.0 mi South 15.0 mph 20.7 mph N/A   Overcast
12:35 PM 71.6 °F 62.6 °F 73% 29.88 in 10.0 mi South 13.8 mph - N/A   Overcast
12:55 PM 71.6 °F 62.6 °F 73% 29.87 in 10.0 mi South 13.8 mph 17.3 mph N/A   Overcast
1:15 PM 71.6 °F 62.6 °F 73% 29.86 in 10.0 mi South 15.0 mph 18.4 mph N/A   Overcast
1:35 PM 73.4 °F 62.6 °F 69% 29.85 in 10.0 mi South 16.1 mph 19.6 mph N/A   Overcast
1:55 PM 73.4 °F 62.6 °F 69% 29.85 in 10.0 mi South 11.5 mph 18.4 mph N/A   Overcast
2:15 PM 75.2 °F 62.6 °F 65% 29.84 in 10.0 mi South 11.5 mph 19.6 mph N/A   Overcast
2:35 PM 75.2 °F 62.6 °F 65% 29.84 in 10.0 mi South 12.7 mph - N/A   Overcast
2:55 PM 75.2 °F 62.6 °F 65% 29.85 in 10.0 mi South 12.7 mph 17.3 mph N/A   Overcast
3:15 PM 75.2 °F 62.6 °F 65% 29.85 in 10.0 mi South 11.5 mph - N/A   Overcast
3:35 PM 77.0 °F 62.6 °F 61% 29.86 in 10.0 mi South 12.7 mph 16.1 mph N/A   Overcast
3:55 PM 77.0 °F 62.6 °F 61% 29.85 in 10.0 mi South 13.8 mph 17.3 mph N/A   Overcast
4:15 PM 77.0 °F 64.4 °F 65% 29.85 in 10.0 mi South 15.0 mph 20.7 mph N/A   Overcast
4:35 PM 77.0 °F 62.6 °F 61% 29.86 in 10.0 mi South 15.0 mph 20.7 mph N/A   Scattered Clouds
4:55 PM 73.4 °F 62.6 °F 69% 29.85 in 10.0 mi South 11.5 mph - N/A   Scattered Clouds
5:15 PM 73.4 °F 62.6 °F 69% 29.85 in 10.0 mi South 10.4 mph - N/A   Scattered Clouds
5:35 PM 73.4 °F 64.4 °F 73% 29.86 in 10.0 mi South 10.4 mph - N/A   Scattered Clouds
5:55 PM 73.4 °F 64.4 °F 73% 29.86 in 10.0 mi South 11.5 mph - N/A   Mostly Cloudy
6:15 PM 73.4 °F 64.4 °F 73% 29.87 in 10.0 mi South 10.4 mph - N/A   Overcast
6:55 PM 71.6 °F 64.4 °F 78% 29.89 in 10.0 mi SSE 8.1 mph - N/A   Overcast
7:15 PM 71.6 °F 64.4 °F 78% 29.90 in 10.0 mi SE 4.6 mph - N/A   Overcast
7:35 PM 71.6 °F 64.4 °F 78% 29.89 in 10.0 mi SE 8.1 mph - N/A   Overcast
7:55 PM 71.6 °F 64.4 °F 78% 29.90 in 10.0 mi SSE 9.2 mph - N/A   Mostly Cloudy
8:15 PM 71.6 °F 64.4 °F 78% 29.90 in 10.0 mi SSE 8.1 mph - N/A   Scattered Clouds
8:35 PM 71.6 °F 64.4 °F 78% 29.91 in 10.0 mi SSE 8.1 mph - N/A   Clear
8:55 PM 71.6 °F 64.4 °F 78% 29.92 in 10.0 mi South 9.2 mph - N/A   Mostly Cloudy
9:15 PM 71.6 °F 64.4 °F 78% 29.92 in 10.0 mi South 9.2 mph - N/A   Overcast
9:35 PM 71.6 °F 64.4 °F 78% 29.92 in 10.0 mi South 13.8 mph 17.3 mph N/A   Mostly Cloudy
9:55 PM 71.6 °F 64.4 °F 78% 29.92 in 10.0 mi South 13.8 mph 18.4 mph N/A   Scattered Clouds
10:15 PM 71.6 °F 64.4 °F 78% 29.92 in 10.0 mi South 15.0 mph - N/A   Scattered Clouds
10:35 PM 71.6 °F 64.4 °F 78% 29.93 in 10.0 mi South 11.5 mph 18.4 mph N/A   Scattered Clouds
10:55 PM 71.6 °F 64.4 °F 78% 29.94 in 10.0 mi South 11.5 mph - N/A   Mostly Cloudy
11:15 PM 71.6 °F 64.4 °F 78% 29.94 in 10.0 mi South 12.7 mph - N/A   Overcast
11:35 PM 71.6 °F 64.4 °F 78% 29.94 in 10.0 mi South 13.8 mph - N/A   Mostly Cloudy
11:55 PM 71.6 °F 64.4 °F 78% 29.94 in 10.0 mi South 16.1 mph - N/A   Mostly Cloudy